Location: Ar Ranvel
(48.3000°N, 4.8833°W)
Time: 00:44:06
(UTC+00:00)

FALCON 9 DEB - Pass Details

Date: 26 October 2021
Orbit: 417 x 427 km, 53.0° (Epoch: 28 November)

Event Time Altitude Azimuth Distance (km) Brightness Sun altitude
Rises 18:22:01 0° 203° (SSW) 2,385 7.3 -12.5°
Reaches altitude 10° 18:24:28 10° 185° (S) 1,523 6.0 -12.9°
Maximum altitude 18:27:03 20° 137° (SE) 1,056 4.7 -13.3°
Enters shadow 18:27:37 19° 122° (ESE) 1,085 4.7 -13.4°
